20050705,000025,531130,30.421683,-124.006858,17.4,19.978,33.507,46.069,1093.75,0.0,0.444,19.676,19.633, NaN,23.629,   NaN,18.21,1017.66,86.19,18.54,4.3,4.9,9.9,9.9,4.1,5.3,9.6,9.5,NaN, NaN,20.6,54.7,24.0,1120521626,1120521626,1,0.6,000025,000026,356.1,30.421523,-124.006872,0.73,NaN,NaN,19.983, NaN,NaN,NaN, NaN, NaN
20050705,000054,531160,30.421796,-124.006872,17.2,19.977,33.506,46.067,1972.89,0.0,0.444,19.676,19.633, NaN,23.629,   NaN,18.08,1017.78,86.03,18.43,12.4,14.8,9.4,9.7,7.2,9.7,8.9,9.3,NaN, NaN,20.7,253.3,311.7,1120521656,1120521656,1,1.1,000055,000056,350.5,30.421648,-124.006875,0.83,NaN,NaN,19.982, NaN,NaN,NaN, NaN, NaN
20050705,000125,531191,30.421940,-124.006927,17.2,19.977,33.503,46.064,2332.96,0.0,0.444,19.675,19.633, NaN,23.626,   NaN,18.14,1017.68,86.08,18.45,16.8,15.9,8.6,9.1,8.3,7.2,8.2,8.7,NaN, NaN,20.7,355.3,315.8,1120521687,1120521687,1,1.5,000086,000087,349.1,30.421785,-124.006922,0.92,NaN,NaN,19.982, NaN,NaN,NaN, NaN, NaN
20050705,000155,531221,30.422090,-124.006958,17.0,19.976,33.507,46.067,2374.61,0.0,0.444,19.676,19.635, NaN,23.630,   NaN,18.19,1017.68,85.75,18.49,20.1,18.7,8.3,8.9,11.4,9.8,7.9,8.4,NaN, NaN,20.5,311.4,339.1,1120521717,1120521717,1,1.4,000116,000117,352.6,30.421940,-124.006987,1.15,NaN,NaN,19.981, NaN,NaN,NaN, NaN, NaN
20050705,000225,531250,30.422251,-124.007037,17.1,19.975,33.505,46.064,2535.96,0.0,0.444,19.673,19.631, NaN,23.628,   NaN,18.28,1017.78,86.15,18.55,15.7,15.1,7.9,8.3,11.5,10.8,7.5,7.8,NaN, NaN,20.9,9.5,340.8,1120521746,1120521746,1,1.4,000145,000146,356.1,30.422098,-124.007055,1.05,NaN,NaN,19.980, NaN,NaN,NaN, NaN, NaN
20050705,000255,531280,30.422421,-124.007073,17.3,19.972,33.507,46.063,2716.80,0.0,0.444,19.668,19.629, NaN,23.630,   NaN,18.39,1017.68,86.03,18.64,6.9,6.0,7.6,7.6,5.6,4.6,7.0,7.0,NaN, NaN,20.5,348.6,347.3,1120521777,1120521777,1,1.3,000176,000177,359.3,30.422276,-124.007097,1.15,NaN,NaN,19.977, NaN,NaN,NaN, NaN, NaN
20050705,000325,531311,30.422586,-124.007048,17.3,19.972,33.504,46.060,2390.37,0.0,0.444,19.670,19.629, NaN,23.629,   NaN,18.41,1017.78,86.02,18.67,359.2,359.1,7.9,7.6,0.1,359.8,7.3,7.1,NaN, NaN,20.7,304.3,351.6,1120521807,1120521807,1,0.9,000206,000207,2.5,30.422435,-124.007092,1.09,NaN,NaN,19.977, NaN,NaN,NaN, NaN, NaN
20050705,000355,531341,30.422733,-124.007022,17.4,19.969,33.505,46.058,1448.90,0.0,0.425,19.668,19.626, NaN,23.630,   NaN,18.27,1017.70,85.73,18.60,351.9,355.2,8.3,7.9,353.6,356.8,7.8,7.4,NaN, NaN,20.2,326.9,357.0,1120521837,1120521837,1,1.3,000236,000237,3.1,30.422585,-124.007060,0.97,NaN,NaN,19.974, NaN,NaN,NaN, NaN, NaN
20050705,000425,531371,30.422858,-124.006965,17.4,19.970,33.504,46.058,1397.15,0.0,0.444,19.668,19.628, NaN,23.629,   NaN,18.26,1017.75,86.21,18.54,352.3,354.8,8.2,7.9,352.7,355.1,7.8,7.4,NaN, NaN,20.0,93.6,42.5,1120521867,1120521867,1,0.9,000266,000267,1.3,30.422710,-124.007007,0.88,NaN,NaN,19.975, NaN,NaN,NaN, NaN, NaN
20050705,000455,531401,30.422993,-124.006950,17.6,19.969,33.504,46.056,1442.52,0.0,0.425,19.665,19.626, NaN,23.629,   NaN,18.26,1017.60,86.08,18.53,350.5,353.3,8.7,8.5,349.0,351.9,8.3,8.1,NaN, NaN,20.9,60.5,9.9,1120521897,1120521897,1,1.0,000296,000297,356.3,30.422833,-124.006962,0.80,NaN,NaN,19.974, NaN,NaN,NaN, NaN, NaN
20050705,000525,531430,30.423103,-124.006930,17.6,19.968,33.503,46.055,1451.21,0.0,0.425,19.664,19.624, NaN,23.629,   NaN,18.18,1017.56,86.03,18.50,3.4,4.4,9.9,9.8,358.2,359.2,9.5,9.4,NaN, NaN,21.0,317.0,303.4,1120521927,1120521927,1,0.9,000326,000327,352.8,30.422943,-124.006937,0.90,NaN,NaN,19.973, NaN,NaN,NaN, NaN, NaN
20050705,000555,531460,30.423216,-124.006943,17.3,19.968,33.502,46.054,1463.06,0.0,0.444,19.665,19.624, NaN,23.628,   NaN,18.10,1017.75,85.78,18.44,6.2,8.2,9.8,9.8,358.9,0.9,9.4,9.4,NaN, NaN,20.4,82.1,332.2,1120521957,1120521957,1,1.2,000356,000357,353.1,30.423055,-124.006948,0.61,NaN,NaN,19.973, NaN,NaN,NaN, NaN, NaN
20050705,000625,531491,30.423303,-124.006923,17.3,19.966,33.502,46.052,1485.14,0.0,0.444,19.662,19.622, NaN,23.629,   NaN,18.18,1017.66,86.03,18.47,357.9,1.9,10.2,10.3,352.0,355.9,9.8,10.0,NaN, NaN,20.6,43.8,38.4,1120521987,1120521987,1,0.7,000386,000387,358.5,30.423148,-124.006958,0.69,NaN,NaN,19.971, NaN,NaN,NaN, NaN, NaN
20050705,000655,531521,30.423386,-124.006937,17.2,19.965,33.501,46.050,1527.05,0.0,0.444,19.660,19.622, NaN,23.628,   NaN,18.11,1017.73,85.94,18.46,354.0,358.5,10.3,10.3,352.9,357.4,10.0,10.0,NaN, NaN,20.5,350.5,330.8,1120522016,1120522016,1,0.7,000415,000416,3.8,30.423238,-124.006975,0.60,NaN,NaN,19.970, NaN,NaN,NaN, NaN, NaN
20050705,000725,531551,30.423493,-124.006908,16.9,19.961,33.504,46.050,2340.88,0.0,0.444,19.663,19.620, NaN,23.631,   NaN,18.25,1017.70,86.30,18.53,350.3,352.9,9.6,9.6,353.7,356.4,9.3,9.3,NaN, NaN,19.4,308.7,346.9,1120522047,1120522047,1,0.9,000446,000447,5.4,30.423335,-124.006950,0.62,NaN,NaN,19.966, NaN,NaN,NaN, NaN, NaN
20050705,000755,531581,30.423590,-124.006835,17.2,19.961,33.504,46.049,2472.93,0.0,0.444,19.658,19.619, NaN,23.631,   NaN,18.27,1017.78,85.81,18.59,350.3,351.7,9.4,9.0,354.0,355.3,9.2,8.8,NaN, NaN,19.9,54.7,57.1,1120522077,1120522077,1,1.0,000476,000477,2.8,30.423433,-124.006877,0.72,NaN,NaN,19.966, NaN,NaN,NaN, NaN, NaN
20050705,000825,531610,30.423693,-124.006820,17.5,19.963,33.497,46.042,2379.33,0.0,0.444,19.659,19.618, NaN,23.626,   NaN,18.23,1017.82,85.86,18.53,348.6,353.7,9.1,8.5,349.9,355.0,8.8,8.2,NaN, NaN,20.4,34.3,351.4,1120522106,1120522106,1,0.7,000505,000506,0.5,30.423538,-124.006848,0.72,NaN,NaN,19.968, NaN,NaN,NaN, NaN, NaN
20050705,000855,531640,30.423881,-124.006777,17.5,19.966,33.497,46.045,2381.45,0.0,0.444,19.657,19.615, NaN,23.625,   NaN,18.27,1017.75,85.93,18.55,1.9,359.6,8.9,8.6,358.4,356.0,8.4,8.0,NaN, NaN,19.5,326.9,6.1,1120522137,1120522137,1,1.8,000536,000537,351.8,30.423730,-124.006795,1.39,NaN,NaN,19.971, NaN,NaN,NaN, NaN, NaN
20050705,000925,531671,30.424156,-124.006813,17.3,19.963,33.501,46.046,2452.78,0.0,0.463,19.659,19.617, NaN,23.628,   NaN,18.21,1017.71,85.65,18.49,2.2,5.8,9.6,9.6,354.2,358.3,9.0,8.7,NaN, NaN,20.4,358.1,354.9,1120522167,1120522167,1,2.3,000566,000567,349.8,30.424005,-124.006822,2.15,NaN,NaN,19.968, NaN,NaN,NaN, NaN, NaN
20050705,000955,531701,30.424485,-124.006885,17.4,19.959,33.504,46.046,2596.78,0.0,0.444,19.655,19.616, NaN,23.632,   NaN,18.22,1017.71,85.54,18.50,359.2,7.1,9.6,9.7,350.5,358.5,8.6,8.6,NaN, NaN,20.9,322.7,339.4,1120522197,1120522197,1,2.1,000596,000597,351.5,30.424338,-124.006895,2.61,NaN,NaN,19.964, NaN,NaN,NaN, NaN, NaN
20050705,001025,531731,30.424831,-124.006928,17.0,19.958,33.501,46.042,2576.38,0.0,0.425,19.660,19.618, NaN,23.630,   NaN,18.26,1017.89,85.74,18.53,4.2,5.6,9.3,10.1,356.2,357.7,8.1,8.9,NaN, NaN,20.6,336.4,355.6,1120522227,1120522227,1,2.2,000626,000627,350.5,30.424673,-124.006943,2.26,NaN,NaN,19.963, NaN,NaN,NaN, NaN, NaN
20050705,001055,531760,30.425105,-124.007010,17.4,19.960,33.499,46.041,1392.90,0.0,0.444,19.659,19.618, NaN,23.627,   NaN,18.27,1017.73,85.66,18.56,7.3,9.3,9.3,10.5,358.4,0.4,8.3,9.5,NaN, NaN,20.5,306.2,334.3,1120522257,1120522257,1,2.0,000656,000657,347.2,30.424958,-124.007007,2.06,NaN,NaN,19.965, NaN,NaN,NaN, NaN, NaN
20050705,001125,531790,30.425385,-124.007097,17.4,19.962,33.501,46.046,1503.23,0.0,0.425,19.654,19.611, NaN,23.629,   NaN,18.17,1017.72,85.63,18.50,11.3,13.8,9.5,10.2,0.2,2.7,8.5,9.2,NaN, NaN,20.6,11.3,358.7,1120522287,1120522287,1,2.2,000686,000687,346.1,30.425238,-124.007103,2.03,NaN,NaN,19.967, NaN,NaN,NaN, NaN, NaN
20050705,001155,531821,30.425650,-124.007230,17.4,19.961,33.498,46.041,1885.39,0.0,0.444,19.655,19.613, NaN,23.627,   NaN,18.20,1017.63,85.85,18.52,15.2,17.8,10.3,10.8,3.7,6.4,9.3,9.9,NaN, NaN,20.0,292.5,312.9,1120522317,1120522317,1,2.0,000716,000717,347.8,30.425493,-124.007228,1.84,NaN,NaN,19.966, NaN,NaN,NaN, NaN, NaN
20050705,001225,531851,30.425873,-124.007310,17.3,19.955,33.501,46.039,2049.78,0.0,0.425,19.651,19.610, NaN,23.630,   NaN,18.25,1017.64,85.75,18.58,18.2,19.4,10.3,10.8,9.1,10.2,9.5,10.0,NaN, NaN,20.4,0.5,352.4,1120522347,1120522347,1,2.0,000746,000747,349.3,30.425721,-124.007317,1.69,NaN,NaN,19.960, NaN,NaN,NaN, NaN, NaN
20050705,001255,531881,30.426096,-124.007408,17.5,19.955,33.501,46.039,2304.42,0.0,0.444,19.647,19.610, NaN,23.630,   NaN,18.15,1017.61,85.61,18.51,16.4,17.6,10.2,10.7,8.0,9.2,9.4,10.0,NaN, NaN,19.7,351.7,340.5,1120522377,1120522377,1,1.8,000776,000777,350.7,30.425946,-124.007412,1.72,NaN,NaN,19.960, NaN,NaN,NaN, NaN, NaN
20050705,001325,531911,30.426325,-124.007477,17.2,19.947,33.501,46.031,1887.07,0.0,0.444,19.646,19.607, NaN,23.633,   NaN,18.21,1017.73,85.72,18.52,12.2,13.0,9.9,10.2,4.6,5.4,9.0,9.4,NaN, NaN,20.5,328.3,331.3,1120522407,1120522407,1,1.7,000806,000807,351.8,30.426180,-124.007485,1.79,NaN,NaN,19.952, NaN,NaN,NaN, NaN, NaN
20050705,001355,531940,30.426553,-124.007527,17.0,19.945,33.498,46.026,1357.99,0.0,0.444,19.643,19.601, NaN,23.630,   NaN,18.15,1017.73,85.67,18.48,11.9,12.6,9.7,9.9,4.0,4.7,8.8,9.1,NaN, NaN,20.1,321.0,353.7,1120522437,1120522437,1,1.5,000836,000837,347.9,30.426413,-124.007530,1.64,NaN,NaN,19.950, NaN,NaN,NaN, NaN, NaN
20050705,001426,531972,30.426738,-124.007595,17.4,19.941,33.499,46.023,1166.53,0.0,0.444,19.639,19.596, NaN,23.633,   NaN,18.04,1017.69,85.56,18.42,15.0,16.8,9.6,10.1,5.0,6.9,8.9,9.5,NaN, NaN,20.0,336.5,355.2,1120522467,1120522467,1,1.2,000866,000867,347.3,30.426591,-124.007603,1.24,NaN,NaN,19.946, NaN,NaN,NaN, NaN, NaN
20050705,001455,532001,30.426891,-124.007678,17.3,19.937,33.498,46.017,1101.70,0.0,0.444,19.634,19.594, NaN,23.633,   NaN,18.03,1017.69,85.61,18.39,12.9,15.4,9.1,9.6,2.2,4.7,8.5,9.1,NaN, NaN,20.4,63.6,21.9,1120522497,1120522497,1,1.1,000896,000897,347.1,30.426740,-124.007678,1.15,NaN,NaN,19.942, NaN,NaN,NaN, NaN, NaN
20050705,001525,532031,30.427040,-124.007767,17.5,19.933,33.497,46.012,1114.57,0.0,0.444,19.631,19.590, NaN,23.633,   NaN,17.99,1017.75,85.55,18.33,11.6,15.2,8.5,9.0,2.2,5.9,8.0,8.5,NaN, NaN,20.3,300.2,316.0,1120522526,1120522526,1,1.9,000925,000926,350.5,30.426886,-124.007772,1.30,NaN,NaN,19.938, NaN,NaN,NaN, NaN, NaN
20050705,001555,532061,30.427190,-124.007820,17.0,19.930,33.495,46.007,1355.95,0.0,0.463,19.628,19.588, NaN,23.632,   NaN,18.08,1017.79,85.75,18.41,8.3,12.5,8.2,8.5,0.7,5.1,7.6,8.0,NaN, NaN,20.3,306.1,325.3,1120522557,1120522557,1,0.9,000956,000957,352.8,30.427045,-124.007835,1.24,NaN,NaN,19.935, NaN,NaN,NaN, NaN, NaN
20050705,001626,532092,30.427308,-124.007855,17.1,19.930,33.493,46.005,1140.47,0.0,0.444,19.627,19.587, NaN,23.631,   NaN,18.07,1017.81,85.64,18.41,6.9,12.3,8.3,8.4,1.1,6.7,7.9,8.0,NaN, NaN,19.9,37.5,345.8,1120522587,1120522587,1,0.5,000986,000987,354.6,30.427151,-124.007868,0.73,NaN,NaN,19.935, NaN,NaN,NaN, NaN, NaN
20050705,001655,532120,30.427390,-124.007870,17.3,19.931,33.489,46.002,1116.43,0.0,0.444,19.624,19.584, NaN,23.628,   NaN,18.17,1017.73,86.14,18.47,15.4,18.3,8.0,8.3,9.7,12.7,7.7,8.0,NaN, NaN,19.6,293.5,339.4,1120522617,1120522617,1,0.8,001016,001017,352.8,30.427238,-124.007890,0.66,NaN,NaN,19.936, NaN,NaN,NaN, NaN, NaN
20050705,001725,532151,30.427476,-124.007930,17.1,19.926,33.494,46.002,1025.21,0.0,0.444,19.622,19.583, NaN,23.632,   NaN,18.25,1017.77,86.20,18.55,18.5,21.6,8.5,8.8,12.9,16.1,8.3,8.6,NaN, NaN,20.6,287.1,325.2,1120522646,1120522646,1,0.8,001045,001046,351.3,30.427330,-124.007935,0.76,NaN,NaN,19.931, NaN,NaN,NaN, NaN, NaN
20050705,001754,532180,30.427543,-124.007983,17.2,19.926,33.489,45.997,1808.01,0.0,0.463,19.623,19.583, NaN,23.629,   NaN,18.15,1017.65,85.99,18.51,17.3,19.1,9.1,9.5,10.3,12.2,8.9,9.3,NaN, NaN,19.7,200.9,261.2,1120522676,1120522676,1,0.9,001075,001076,351.5,30.427388,-124.007995,0.34,NaN,NaN,19.931, NaN,NaN,NaN, NaN, NaN
20050705,001825,532211,30.427581,-124.008037,17.1,19.927,33.488,45.996,2306.86,0.0,0.444,19.623,19.583, NaN,23.627,   NaN,18.09,1017.81,85.52,18.46,12.7,16.6,9.2,9.8,6.1,9.8,9.1,9.7,NaN, NaN,20.5,268.5,320.2,1120522707,1120522707,1,0.3,001106,001107,352.1,30.427433,-124.008045,0.48,NaN,NaN,19.932, NaN,NaN,NaN, NaN, NaN
20050705,001855,532241,30.427641,-124.008095,17.1,19.924,33.489,45.995,2313.82,0.0,0.463,19.621,19.583, NaN,23.630,   NaN,18.08,1017.76,85.48,18.41,12.5,15.1,9.9,10.4,7.1,9.7,9.8,10.2,NaN, NaN,19.8,286.9,307.9,1120522737,1120522737,1,1.2,001136,001137,355.0,30.427495,-124.008112,0.44,NaN,NaN,19.929, NaN,NaN,NaN, NaN, NaN
20050705,001925,532270,30.427758,-124.008135,17.1,19.925,33.487,45.993,2400.09,0.0,0.463,19.620,19.580, NaN,23.628,   NaN,18.14,1017.75,85.48,18.45,12.0,13.6,10.1,10.3,8.4,10.0,9.8,10.0,NaN, NaN,19.7,313.6,317.2,1120522767,1120522767,1,1.2,001166,001167,357.1,30.427613,-124.008163,0.99,NaN,NaN,19.930, NaN,NaN,NaN, NaN, NaN
20050705,001955,532300,30.427931,-124.008165,17.3,19.925,33.488,45.995,1991.92,0.0,0.463,19.619,19.581, NaN,23.629,   NaN,18.11,1017.67,85.17,18.42,12.5,14.2,9.5,9.8,10.5,12.2,9.0,9.3,NaN, NaN,19.6,2.8,359.1,1120522796,1120522796,1,1.7,001195,001196,356.3,30.427796,-124.008197,1.43,NaN,NaN,19.930, NaN,NaN,NaN, NaN, NaN
20050705,002025,532331,30.428165,-124.008223,17.3,19.925,33.487,45.994,2127.27,0.0,0.444,19.618,19.579, NaN,23.628,   NaN,18.26,1017.69,85.76,18.51,13.7,15.5,8.9,9.2,12.2,14.0,8.1,8.5,NaN, NaN,19.4,5.0,343.5,1120522827,1120522827,1,2.5,001226,001227,356.6,30.428030,-124.008250,1.50,NaN,NaN,19.930, NaN,NaN,NaN, NaN, NaN
20050705,002055,532361,30.428391,-124.008257,17.0,19.922,33.485,45.987,2021.09,0.0,0.444,19.614,19.575, NaN,23.627,   NaN,18.28,1017.65,85.60,18.58,11.4,12.4,8.9,9.1,9.5,10.4,8.1,8.3,NaN, NaN,19.7,325.6,339.3,1120522857,1120522857,1,2.0,001256,001257,356.5,30.428258,-124.008282,1.70,NaN,NaN,19.927, NaN,NaN,NaN, NaN, NaN
20050705,002125,532391,30.428588,-124.008282,17.1,19.921,33.491,45.994,1918.78,0.0,0.444,19.616,19.576, NaN,23.632,   NaN,18.27,1017.74,85.90,18.57,11.7,10.3,8.7,9.0,9.7,8.3,8.0,8.2,NaN, NaN,19.2,334.5,347.8,1120522887,1120522887,1,1.2,001286,001287,357.6,30.428450,-124.008303,1.19,NaN,NaN,19.926, NaN,NaN,NaN, NaN, NaN
20050705,002155,532421,30.428743,-124.008277,17.3,19.918,33.489,45.988,2232.30,0.0,0.463,19.614,19.575, NaN,23.631,   NaN,18.20,1017.69,85.22,18.51,7.3,7.5,8.9,9.3,5.8,6.0,8.4,8.7,NaN, NaN,20.0,346.7,1.5,1120522917,1120522917,1,0.9,001316,001317,357.1,30.428601,-124.008303,1.15,NaN,NaN,19.923, NaN,NaN,NaN, NaN, NaN
20050705,002225,532450,30.428870,-124.008297,17.1,19.919,33.488,45.987,2367.39,0.0,0.444,19.612,19.575, NaN,23.630,   NaN,18.23,1017.80,85.73,18.53,5.1,8.7,8.6,8.8,1.3,5.1,8.1,8.3,NaN, NaN,19.2,309.6,307.3,1120522947,1120522947,1,1.4,001346,001347,351.5,30.428726,-124.008310,0.74,NaN,NaN,19.924, NaN,NaN,NaN, NaN, NaN
20050705,002255,532480,30.428981,-124.008318,17.2,19.917,33.489,45.986,1456.56,0.0,0.444,19.608,19.573, NaN,23.631,   NaN,18.27,1017.68,85.81,18.55,9.5,11.2,8.5,8.3,2.0,3.7,8.2,8.0,NaN, NaN,19.8,305.0,312.1,1120522977,1120522977,1,0.7,001376,001377,350.8,30.428833,-124.008330,0.89,NaN,NaN,19.922, NaN,NaN,NaN, NaN, NaN
20050705,002325,532511,30.429096,-124.008375,17.4,19.914,33.486,45.981,1316.36,0.0,0.425,19.610,19.570, NaN,23.630,   NaN,18.25,1017.61,85.83,18.56,1.0,10.9,8.7,8.7,353.3,3.5,8.3,8.3,NaN, NaN,19.8,345.9,333.0,1120523007,1120523007,1,0.9,001406,001407,353.8,30.428955,-124.008385,0.90,NaN,NaN,19.919, NaN,NaN,NaN, NaN, NaN
20050705,002355,532541,30.429281,-124.008397,17.4,19.912,33.486,45.979,1382.81,0.0,0.444,19.610,19.570, NaN,23.630,   NaN,18.26,1017.56,86.15,18.53,358.1,8.1,9.2,9.6,352.5,2.9,8.6,9.0,NaN, NaN,19.4,5.7,358.4,1120523037,1120523037,1,1.5,001436,001437,355.0,30.429140,-124.008418,1.42,NaN,NaN,19.917, NaN,NaN,NaN, NaN, NaN
20050705,002426,532572,30.429503,-124.008437,17.0,19.915,33.483,45.978,2136.59,0.0,0.425,19.610,19.570, NaN,23.628,   NaN,18.30,1017.46,86.28,18.61,7.7,9.0,9.5,9.6,3.6,5.0,8.7,8.8,NaN, NaN,19.7,334.0,337.8,1120523067,1120523067,1,1.7,001466,001467,355.3,30.429366,-124.008457,1.55,NaN,NaN,19.920, NaN,NaN,NaN, NaN, NaN
20050705,002455,532600,30.429675,-124.008440,17.2,19.917,33.484,45.981,2385.59,0.0,0.444,19.608,19.568, NaN,23.627,   NaN,18.51,1017.66,86.76,18.76,11.3,11.1,8.3,8.7,7.8,7.4,7.7,8.0,NaN, NaN,19.1,344.9,7.7,1120523097,1120523097,1,0.8,001496,001497,354.5,30.429531,-124.008472,1.30,NaN,NaN,19.922, NaN,NaN,NaN, NaN, NaN
20050705,002526,532632,30.429801,-124.008483,17.4,19.917,33.484,45.981,1697.27,0.0,0.463,19.608,19.569, NaN,23.627,   NaN,18.46,1017.52,86.47,18.77,14.0,14.3,7.5,8.1,9.5,9.6,7.0,7.6,NaN, NaN,19.0,310.9,327.5,1120523127,1120523127,1,1.2,001526,001527,352.6,30.429663,-124.008500,0.83,NaN,NaN,19.922, NaN,NaN,NaN, NaN, NaN
20050705,002555,532661,30.429918,-124.008513,17.1,19.913,33.486,45.980,1939.79,0.0,0.425,19.607,19.567, NaN,23.630,   NaN,18.37,1017.63,86.58,18.71,16.1,16.1,7.8,8.3,10.1,9.9,7.3,7.9,NaN, NaN,19.4,339.7,314.2,1120523157,1120523157,1,0.9,001556,001557,352.4,30.429778,-124.008532,0.90,NaN,NaN,19.918, NaN,NaN,NaN, NaN, NaN
20050705,002625,532691,30.430046,-124.008555,17.3,19.905,33.489,45.976,2370.92,0.0,0.444,19.601,19.562, NaN,23.634,   NaN,18.39,1017.61,86.60,18.71,18.1,17.0,8.5,8.9,11.7,10.5,8.1,8.4,NaN, NaN,19.7,313.2,334.4,1120523187,1120523187,1,0.9,001586,001587,352.0,30.429903,-124.008568,1.04,NaN,NaN,19.910, NaN,NaN,NaN, NaN, NaN
20050705,002655,532721,30.430205,-124.008627,17.2,19.903,33.486,45.970,1715.62,0.0,0.425,19.602,19.564, NaN,23.633,   NaN,18.21,1017.63,86.21,18.61,18.4,19.2,9.3,9.9,12.9,13.7,8.9,9.4,NaN, NaN,20.1,53.8,13.0,1120523217,1120523217,1,1.4,001616,001617,353.5,30.430066,-124.008637,1.30,NaN,NaN,19.908, NaN,NaN,NaN, NaN, NaN
20050705,002726,532752,30.430395,-124.008677,17.4,19.907,33.487,45.975,1566.75,0.0,0.444,19.602,19.563, NaN,23.632,   NaN,18.30,1017.56,86.98,18.61,16.8,17.4,8.8,9.3,12.7,13.2,8.1,8.7,NaN, NaN,18.7,342.2,340.4,1120523247,1120523247,1,1.8,001646,001647,355.5,30.430256,-124.008705,1.38,NaN,NaN,19.912, NaN,NaN,NaN, NaN, NaN
20050705,002755,532780,30.430583,-124.008728,17.3,19.910,33.482,45.972,1313.34,0.0,0.444,19.597,19.561, NaN,23.628,   NaN,18.31,1017.54,86.83,18.62,15.0,14.4,8.4,8.9,12.8,12.0,7.8,8.2,NaN, NaN,19.3,351.9,9.4,1120523277,1120523277,1,1.3,001676,001677,356.6,30.430445,-124.008755,1.29,NaN,NaN,19.915, NaN,NaN,NaN, NaN, NaN
20050705,002825,532810,30.430751,-124.008757,17.4,19.904,33.487,45.972,1165.35,0.0,0.425,19.598,19.560, NaN,23.633,   NaN,18.17,1017.55,86.56,18.53,13.0,14.0,8.8,9.3,11.2,12.2,8.1,8.7,NaN, NaN,19.7,15.2,40.8,1120523307,1120523307,1,0.8,001706,001707,355.6,30.430606,-124.008787,1.40,NaN,NaN,19.909, NaN,NaN,NaN, NaN, NaN
20050705,002855,532841,30.430898,-124.008808,17.3,19.904,33.483,45.968,1223.68,0.0,0.444,19.596,19.557, NaN,23.630,   NaN,18.05,1017.64,86.27,18.42,13.7,16.0,9.2,9.9,11.0,13.3,8.6,9.3,NaN, NaN,19.6,350.4,340.9,1120523337,1120523337,1,1.7,001736,001737,355.8,30.430755,-124.008838,1.06,NaN,NaN,19.909, NaN,NaN,NaN, NaN, NaN
20050705,002926,532871,30.431091,-124.008848,17.6,19.906,33.483,45.970,1612.20,0.0,0.463,19.597,19.558, NaN,23.630,   NaN,18.02,1017.49,86.22,18.38,13.3,15.1,9.3,9.6,10.0,11.9,8.7,9.0,NaN, NaN,18.8,301.0,331.5,1120523367,1120523367,1,1.7,001766,001767,354.3,30.430955,-124.008877,1.55,NaN,NaN,19.911, NaN,NaN,NaN, NaN, NaN
20050705,002955,532901,30.431323,-124.008890,16.8,19.907,33.482,45.969,1255.95,0.0,0.444,19.599,19.561, NaN,23.628,   NaN,18.09,1017.63,86.36,18.40,15.3,15.5,8.9,9.2,12.0,12.2,8.2,8.4,NaN, NaN,18.7,17.7,2.6,1120523397,1120523397,1,1.5,001796,001797,356.5,30.431183,-124.008922,1.59,NaN,NaN,19.912, NaN,NaN,NaN, NaN, NaN
20050705,003025,532931,30.431470,-124.008913,17.0,19.909,33.480,45.968,1184.62,0.0,0.444,19.597,19.558, NaN,23.626,   NaN,18.17,1017.70,86.51,18.47,21.7,19.7,8.7,9.1,20.4,18.2,8.1,8.6,NaN, NaN,19.0,351.0,345.3,1120523427,1120523427,1,0.7,001826,001827,359.1,30.431328,-124.008947,1.08,NaN,NaN,19.914, NaN,NaN,NaN, NaN, NaN
20050705,003055,532960,30.431623,-124.008942,17.2,19.905,33.485,45.970,1166.06,0.0,0.463,19.596,19.557, NaN,23.631,   NaN,18.11,1017.67,86.16,18.45,19.8,20.0,8.2,8.8,19.0,19.1,7.7,8.3,NaN, NaN,19.0,316.4,355.7,1120523456,1120523456,1,1.2,001855,001856,353.6,30.431483,-124.008955,1.10,NaN,NaN,19.910, NaN,NaN,NaN, NaN, NaN
20050705,003125,532990,30.431820,-124.009002,17.2,19.903,33.484,45.967,1169.80,0.0,0.463,19.596,19.558, NaN,23.631,   NaN,18.09,1017.67,86.27,18.44,18.0,20.1,8.1,8.8,13.3,15.4,7.5,8.2,NaN, NaN,18.9,339.9,339.2,1120523487,1120523487,1,1.5,001886,001887,351.0,30.431671,-124.009017,1.44,NaN,NaN,19.908, NaN,NaN,NaN, NaN, NaN
20050705,003155,533021,30.432021,-124.009053,17.3,19.899,33.483,45.963,1180.19,0.0,0.444,19.592,19.551, NaN,23.631,   NaN,18.09,1017.60,86.26,18.43,10.1,12.6,8.1,8.4,3.6,6.2,7.4,7.7,NaN, NaN,18.4,38.0,349.5,1120523517,1120523517,1,1.7,001916,001917,354.3,30.431875,-124.009092,1.48,NaN,NaN,19.904, NaN,NaN,NaN, NaN, NaN
20050705,003226,533051,30.432200,-124.009077,17.3,19.893,33.485,45.958,1193.52,0.0,0.481,19.593,19.556, NaN,23.634,   NaN,18.19,1017.68,86.58,18.47,2.5,4.7,7.4,7.9,358.7,1.0,6.7,7.2,NaN, NaN,18.4,328.4,3.5,1120523547,1120523547,1,1.0,001946,001947,0.0,30.432060,-124.009120,1.25,NaN,NaN,19.898, NaN,NaN,NaN, NaN, NaN
20050705,003255,533081,30.432335,-124.009098,17.3,19.896,33.478,45.953,1252.69,0.0,0.463,19.592,19.553, NaN,23.628,   NaN,18.27,1017.63,86.63,18.56,355.8,359.9,7.7,8.0,357.2,1.5,7.2,7.6,NaN, NaN,18.8,79.1,50.3,1120523577,1120523577,1,0.6,001976,001977,5.7,30.432183,-124.009147,0.66,NaN,NaN,19.901, NaN,NaN,NaN, NaN, NaN
20050705,003325,533110,30.432483,-124.009067,17.1,19.901,33.480,45.960,1122.53,0.0,0.463,19.592,19.555, NaN,23.628,   NaN,18.24,1017.70,86.54,18.56,348.8,352.2,8.6,8.5,353.5,356.9,8.1,8.1,NaN, NaN,17.3,38.9,15.7,1120523607,1120523607,1,1.9,002006,002007,7.5,30.432340,-124.009123,1.04,NaN,NaN,19.906, NaN,NaN,NaN, NaN, NaN
20050705,003355,533140,30.432880,-124.008982,17.0,19.897,33.480,45.957,1079.43,0.0,0.444,19.590,19.553, NaN,23.630,   NaN,18.21,1017.68,86.69,18.53,345.1,349.1,9.7,8.9,350.2,354.4,8.6,7.9,NaN, NaN,17.8,20.2,13.5,1120523637,1120523637,1,3.9,002036,002037,6.5,30.432741,-124.009037,3.18,NaN,NaN,19.902, NaN,NaN,NaN, NaN, NaN
20050705,003425,533171,30.433446,-124.008875,17.4,19.895,33.481,45.956,1017.77,0.0,0.463,19.590,19.553, NaN,23.631,   NaN,18.16,1017.63,86.69,18.47,346.8,349.6,11.0,9.7,350.8,353.5,9.2,7.9,NaN, NaN,17.4,16.0,1.4,1120523667,1120523667,1,4.1,002066,002067,8.6,30.433313,-124.008937,3.96,NaN,NaN,19.900, NaN,NaN,NaN, NaN, NaN
20050705,003455,533201,30.433941,-124.008753,17.4,19.896,33.480,45.955,940.47,0.0,0.481,19.590,19.553, NaN,23.630,   NaN,18.21,1017.58,86.91,18.50,350.3,353.2,11.0,10.1,354.8,357.8,9.1,8.1,NaN, NaN,18.2,341.7,0.5,1120523697,1120523696,1,3.7,002095,002096,6.3,30.433795,-124.008818,3.43,NaN,NaN,19.901, NaN,NaN,NaN, NaN, NaN
20050705,003525,533231,30.434453,-124.008665,17.2,19.897,33.478,45.954,866.56,0.0,0.444,19.588,19.551, NaN,23.628,   NaN,18.18,1017.54,86.95,18.48,358.6,1.4,10.7,10.9,4.2,7.3,8.9,9.1,NaN, NaN,18.0,354.2,6.7,1120523727,1120523727,1,4.2,002126,002127,6.3,30.434315,-124.008730,3.47,NaN,NaN,19.902, NaN,NaN,NaN, NaN, NaN
20050705,003555,533261,30.435031,-124.008560,17.8,19.899,33.480,45.958,841.04,0.0,0.463,19.590,19.550, NaN,23.629,   NaN,18.05,1017.39,86.50,18.42,6.7,4.5,10.7,11.2,16.6,15.7,8.8,9.1,NaN, NaN,17.0,30.0,13.4,1120523757,1120523756,1,4.4,002155,002156,27.4,30.434905,-124.008658,4.20,NaN,NaN,19.904, NaN,NaN,NaN, NaN, NaN
20050705,003625,533290,30.435450,-124.008085,17.5,19.896,33.480,45.956,830.93,0.0,0.481,19.588,19.548, NaN,23.630,   NaN,18.03,1017.55,86.72,18.37,338.0,339.8,10.7,10.4,11.8,13.1,9.0,8.5,NaN, NaN,17.4,74.5,74.3,1120523787,1120523787,1,4.2,002186,002187,68.0,30.435398,-124.008237,3.90,NaN,NaN,19.901, NaN,NaN,NaN, NaN, NaN
20050705,003655,533320,30.435675,-124.007440,17.3,19.896,33.479,45.954,843.07,0.0,0.481,19.589,19.546, NaN,23.629,   NaN,18.06,1017.51,86.90,18.40,312.1,312.3,9.9,9.9,2.2,2.9,8.7,8.7,NaN, NaN,17.0,31.0,56.1,1120523817,1120523817,1,4.8,002216,002217,59.5,30.435611,-124.007573,4.10,NaN,NaN,19.901, NaN,NaN,NaN, NaN, NaN